Location: Ajisawe
(8.4333°N, 4.3833°E)
Time: 00:38:51
(UTC+00:00)

S-56A Canister/Altair - Pass Details

Date: 23 April 2021
Orbit: 631 x 2501 km, 38.9° (Epoch: 15 May)

Event Time Altitude Azimuth Distance (km) Brightness Sun altitude
Rises 19:30:09 0° 239° (WSW) 6,112 12.7 -24.3°
Reaches altitude 10° 19:34:29 10° 243° (WSW) 4,987 12.2 -25.3°
Maximum altitude 19:47:56 57° 318° (NW) 2,178 9.9 -28.4°
Drops below altitude 10° 19:57:22 10° 36° (NE) 3,570 10.8 -30.6°
Enters shadow 19:58:20 - 38° (NE) 3,840 10.9 -30.8°
